Weather History for Fort Knox, KY

Change the Weather History Date:

Tuesday, February 19, 2013

  Actual Average Record
Temperature  
Mean Temperature 35 °F -  
Max Temperature 45 °F 46 °F 64 °F (2004)
Min Temperature 23 °F 28 °F 8 °F (2006)
Degree Days  
Heating Degree Days 30    
Moisture  
Dew Point 33 °F    
Average Humidity 80    
Maximum Humidity 93    
Minimum Humidity 43    
Precipitation  
Precipitation 0.16 in - - ()
Sea Level Pressure  
Sea Level Pressure 29.89 in    
Wind  
Wind Speed 17 mph (WSW)    
Max Wind Speed 23 mph    
Max Gust Speed 36 mph    
Visibility 10 miles    
Events Rain    
Averages and records for this station are not official NWS values.
T = Trace of Precipitation, MM = Missing Value Source: NWS Daily Summary

Daily Weather History Graph

Daily Weather History Graph

Search for Another Location

Airport:

Trip Planner

Search our weather history database for the weather conditions in past years. The results will help you decide how hot, cold, wet, or windy it might be!

Date:

Astronomy

Feb. 19, 2013 Rise Set
Actual Time 7:28 AM EST 6:27 PM EST
Civil Twilight 7:01 AM EST 6:54 PM EST
Nautical Twilight 6:31 AM EST 7:24 PM EST
Astronomical Twilight 6:00 AM EST 7:55 PM EST
Moon 1:01 PM EST (2/19) 2:56 AM EST (2/19)
Length of Visible Light 11h 52m
Length of Day
10h 58m
Waxing Gibbous, 67% of the Moon is Illuminated
Feb 19
Waxing Gibbous
Feb 25
Full
Mar 4
Last Quarter
Mar 11
New
Mar 19
First Quarter

Hourly Weather History & Observations

Time (EST) Temp. Windchill Dew Point Humidity Pressure Visibility Wind Dir Wind Speed Gust Speed Precip Events Conditions
12:13 AM 44.6 °F 37.8 °F 42.8 °F 93% 29.80 in 10.0 mi South 15.0 mph 23.0 mph N/A Rain Light Rain
12:17 AM 44.6 °F 37.4 °F 42.8 °F 93% 29.80 in 10.0 mi South 16.1 mph 23.0 mph N/A Rain Light Rain
12:27 AM 44.6 °F 37.4 °F 41.0 °F 87% 29.79 in 10.0 mi South 16.1 mph 21.9 mph N/A   Overcast
12:33 AM 44.6 °F 37.8 °F 41.0 °F 87% 29.79 in 10.0 mi South 15.0 mph - N/A Rain Light Rain
12:38 AM 44.6 °F 36.9 °F 41.0 °F 87% 29.78 in 10.0 mi South 18.4 mph - N/A Rain Light Rain
12:46 AM 44.6 °F 35.9 °F 41.0 °F 87% 29.75 in 10.0 mi South 23.0 mph 35.7 mph N/A Rain Light Rain
12:55 AM 44.8 °F 36.2 °F 41.5 °F 88% 29.75 in 10.0 mi South 23.0 mph 35.7 mph 0.02 in Rain Light Rain
12:56 AM 44.6 °F 35.9 °F 41.0 °F 87% 29.75 in 10.0 mi South 23.0 mph 35.7 mph N/A   Mostly Cloudy
1:30 AM 44.6 °F 36.1 °F 41.0 °F 87% 29.73 in 10.0 mi South 21.9 mph 32.2 mph N/A   Overcast
1:53 AM 44.6 °F 36.6 °F 41.0 °F 87% 29.74 in 10.0 mi South 19.6 mph 35.7 mph N/A   Overcast
1:55 AM 45.1 °F 37.9 °F 41.5 °F 87% 29.74 in 10.0 mi South 17.3 mph 26.5 mph 0.00 in   Overcast
1:58 AM 44.6 °F 35.9 °F 41.0 °F 87% 29.74 in 10.0 mi South 23.0 mph 28.8 mph N/A   Overcast
2:02 AM 44.6 °F 37.2 °F 41.0 °F 87% 29.75 in 10.0 mi South 17.3 mph 28.8 mph N/A   Overcast
2:20 AM 44.6 °F 37.4 °F 42.8 °F 93% 29.75 in 10.0 mi South 16.1 mph 31.1 mph N/A   Overcast
2:44 AM 44.6 °F 37.2 °F 42.8 °F 93% 29.75 in 9.0 mi South 17.3 mph 28.8 mph N/A   Overcast
2:55 AM 44.8 °F 38.0 °F 42.6 °F 92% 29.75 in 9.0 mi SW 15.0 mph - 0.02 in   Overcast
2:59 AM 44.6 °F 38.1 °F 42.8 °F 93% 29.75 in 7.0 mi SSW 13.8 mph - N/A Rain Light Rain
3:01 AM 44.6 °F 38.1 °F 42.8 °F 93% 29.75 in 6.0 mi SSW 13.8 mph - N/A Rain Light Rain
3:22 AM 42.8 °F 33.8 °F 41.0 °F 93% 29.78 in 6.0 mi West 21.9 mph 33.4 mph N/A Rain Light Rain
3:40 AM 41.0 °F 31.4 °F 37.4 °F 87% 29.81 in 10.0 mi West 21.9 mph 29.9 mph N/A Rain Light Rain
3:48 AM 39.2 °F 30.2 °F 35.6 °F 87% 29.81 in 8.0 mi West 17.3 mph 33.4 mph N/A Rain Light Rain
3:53 AM 39.2 °F 31.2 °F 35.6 °F 87% 29.81 in 9.0 mi West 13.8 mph 25.3 mph N/A Rain Light Rain
3:55 AM 38.3 °F 29.3 °F 35.8 °F 91% 29.82 in 9.0 mi West 16.1 mph 25.3 mph 0.09 in Rain Light Rain
4:28 AM 37.4 °F 29.8 °F 35.6 °F 93% 29.83 in 9.0 mi West 11.5 mph - N/A Rain Light Rain
4:37 AM 37.4 °F 27.5 °F 35.6 °F 93% 29.83 in 10.0 mi West 18.4 mph 23.0 mph N/A Rain Light Rain
4:44 AM 37.4 °F 28.5 °F 35.6 °F 93% 29.84 in 10.0 mi West 15.0 mph 24.2 mph N/A Rain Light Rain
4:53 AM 37.4 °F 30.3 °F 35.6 °F 93% 29.85 in 10.0 mi West 10.4 mph - N/A Rain Light Rain
4:55 AM 36.9 °F 29.6 °F 34.9 °F 93% 29.84 in 10.0 mi West 10.4 mph - 0.03 in Rain Light Rain
4:56 AM 37.4 °F 29.8 °F 35.6 °F 93% 29.84 in 10.0 mi West 11.5 mph - N/A   Overcast
5:55 AM 36.9 °F 27.8 °F 34.3 °F 91% 29.86 in 10.0 mi West 15.0 mph - N/A   Overcast
6:05 AM 37.4 °F 28.5 °F 33.8 °F 87% 29.87 in 10.0 mi West 15.0 mph 20.7 mph N/A   Overcast
6:46 AM 35.6 °F 25.9 °F 32.0 °F 87% 29.89 in 10.0 mi West 16.1 mph 25.3 mph N/A   Overcast
6:51 AM 35.6 °F 25.9 °F 32.0 °F 87% 29.90 in 10.0 mi West 16.1 mph 25.3 mph N/A   Overcast
6:55 AM 35.2 °F 23.8 °F 30.9 °F 84% 29.90 in 10.0 mi West 21.9 mph 26.5 mph N/A   Overcast
7:02 AM 33.8 °F 23.5 °F 28.4 °F 81% 29.89 in 10.0 mi West 16.1 mph 27.6 mph N/A   Overcast
7:55 AM 32.5 °F 25.5 °F 27.9 °F 83% 29.93 in 10.0 mi WSW 8.1 mph - N/A   Mostly Cloudy
8:55 AM 32.7 °F 23.0 °F 26.4 °F 78% 29.96 in 10.0 mi WSW 13.8 mph 23.0 mph N/A   Mostly Cloudy
9:55 AM 32.5 °F 21.2 °F 24.6 °F 73% 29.98 in 10.0 mi WSW 18.4 mph 25.3 mph N/A   Mostly Cloudy
10:55 AM 34.0 °F 23.8 °F 23.5 °F 66% 30.00 in 10.0 mi West 16.1 mph 24.2 mph N/A   Mostly Cloudy
11:55 AM 34.5 °F 24.5 °F 24.6 °F 67% 30.01 in 10.0 mi West 16.1 mph 25.3 mph N/A   Mostly Cloudy
12:30 PM 35.6 °F 25.5 °F 23.0 °F 60% 30.00 in 10.0 mi West 17.3 mph 26.5 mph N/A   Mostly Cloudy
12:55 PM 38.3 °F 28.1 °F 23.7 °F 56% 30.02 in 10.0 mi West 20.7 mph 28.8 mph N/A   Mostly Cloudy
1:55 PM 37.4 °F 26.6 °F 21.9 °F 54% 30.02 in 10.0 mi SW 21.9 mph 27.6 mph N/A   Mostly Cloudy
2:55 PM 39.2 °F 31.2 °F 21.6 °F 49% 30.03 in 10.0 mi West 13.8 mph 25.3 mph N/A   Scattered Clouds
3:55 PM 38.7 °F 28.6 °F 19.9 °F 47% 30.05 in 10.0 mi West 20.7 mph 26.5 mph N/A   Scattered Clouds
4:55 PM 37.0 °F 26.7 °F 16.5 °F 43% 30.08 in 10.0 mi West 19.6 mph 27.6 mph N/A   Scattered Clouds
5:55 PM 34.7 °F 24.0 °F 18.1 °F 51% 30.10 in 10.0 mi West 18.4 mph 24.2 mph N/A   Clear
7:55 PM 30.2 °F 21.9 °F 17.6 °F 60% 30.15 in 10.0 mi West 9.2 mph - N/A   Clear
8:55 PM 28.9 °F 20.4 °F 17.2 °F 62% 30.16 in 10.0 mi West 9.2 mph - N/A   Clear
9:55 PM 27.7 °F 18.8 °F 17.4 °F 65% 30.17 in 10.0 mi WNW 9.2 mph 17.3 mph N/A   Clear
10:55 PM 25.9 °F 14.3 °F 16.0 °F 66% 30.19 in 10.0 mi WNW 13.8 mph - N/A   Clear
11:55 PM 23.7 °F 13.3 °F 14.4 °F 67% 30.22 in 10.0 mi West 10.4 mph - N/A   Clear